This demonstration page uses our WeatherBlox Daily Observations layout. Learn more.

Left ArrowRight Arrow

Hourly Observations for July 4, 2022

Temp ( °F °C ) Dew Point ( °F °C ) Humidity (%) Winds ( mph kmh ) Pressure ( in mb ) Visibility ( mi km ) Precip ( " mm )
12:15 am 00:15 Cloudy 74 23.4 72 22 92 92 ESE 10 17 29.78 1008 10 16 0.00 0.00
12:35 am 00:35 Partly Cloudy 74 23.1 72 22 94 94 ESE 8 13 29.79 1009 10 16 0.00 0.00
12:55 am 00:55 Partly Cloudy 74 23.1 71 21.8 92 92 SE 9 15 29.77 1008 10 16 0.00 0.00
1:15 am 01:15 Clear 74 23.5 70 21.3 88 88 SE 10 17 29.76 1008 10 16 0.00 0.00
1:35 am 01:35 Clear 74 23.5 70 21.2 87 87 SE 9 15 29.76 1008 10 16 0.00 0.00
1:55 am 01:55 Clear 74 23.3 70 21 87 87 SSE 9 15 29.75 1007 10 16 0.00 0.00
2:15 am 02:15 Clear 74 23.1 70 21 88 88 SSE 10 17 29.75 1008 10 16 0.00 0.00
2:35 am 02:35 Partly Cloudy 73 23 70 20.9 88 88 S 9 15 29.75 1008 10 16 0.00 0.00
2:55 am 02:55 Partly Cloudy 73 22.8 69 20.7 88 88 S 8 13 29.75 1008 10 16 0.00 0.00
3:15 am 03:15 Clear 73 22.6 69 20.5 88 88 S 7 11 29.76 1008 10 16 0.00 0.00
3:35 am 03:35 Clear 72 22.3 69 20.4 89 89 SSE 8 13 29.75 1007 10 16 0.00 0.00
3:55 am 03:55 Clear 72 22.4 68 20 86 86 S 8 13 29.74 1007 10 16 0.00 0.00
4:15 am 04:15 Clear 74 23.1 67 19.3 79 79 SSW 12 19 29.72 1007 10 16 0.00 0.00
4:35 am 04:35 Clear 75 24 65 18.4 71 71 SSW 14 22 29.72 1006 10 16 0.00 0.00
4:55 am 04:55 Clear 75 24.1 65 18.1 69 69 S 14 22 29.71 1006 10 16 0.00 0.00
5:15 am 05:15 Clear 74 23.4 65 18.1 72 72 S 13 20 29.72 1006 10 16 0.00 0.00
5:35 am 05:35 Clear 73 22.6 65 18.2 76 76 S 10 17 29.73 1007 10 16 0.00 0.00
5:55 am 05:55 Clear 72 22.3 65 18.1 77 77 S 9 15 29.73 1007 10 16 0.00 0.00
6:15 am 06:15 Sunny 72 22.1 64 18 78 78 S 9 15 29.73 1007 10 16 0.00 0.00
6:35 am 06:35 Sunny 72 22 65 18.1 79 79 S 10 17 29.74 1007 10 16 0.00 0.00
6:55 am 06:55 Sunny 71 21.7 65 18.2 81 81 S 8 13 29.73 1007 10 16 0.00 0.00
7:15 am 07:15 Sunny 72 22 65 18.1 79 79 S 7 11 29.74 1007 10 16 0.00 0.00
7:35 am 07:35 Sunny 71 21.9 65 18.1 79 79 SSW 7 11 29.75 1008 10 16 0.00 0.00
7:55 am 07:55 Sunny 72 22 65 18.1 79 79 S 8 13 29.75 1007 10 16 0.00 0.00
8:15 am 08:15 Sunny 73 22.8 66 18.7 78 78 S 8 13 29.73 1007 10 16 0.00 0.00
8:35 am 08:35 Sunny 76 24.3 66 18.7 71 71 SSW 9 15 29.73 1007 10 16 0.00 0.00
8:55 am 08:55 Sunny 78 25.5 66 19.1 68 68 SSW 13 20 29.72 1007 10 16 0.00 0.00
9:15 am 09:15 Sunny 78 25.5 65 18.5 65 65 SSW 15 24 29.72 1007 10 16 0.00 0.00
9:35 am 09:35 Sunny 78 25.5 65 18.5 65 65 SSW 13 20 29.71 1006 10 16 0.00 0.00
9:55 am 09:55 Sunny 78 25.5 66 18.8 67 67 SSW 9 15 29.72 1007 10 16 0.00 0.00
10:15 am 10:15 Sunny 79 26.1 66 18.9 65 65 SSW 10 17 29.72 1006 10 16 0.00 0.00
10:35 am 10:35 Sunny 79 26.1 67 19.3 66 66 SSW 10 17 29.72 1006 10 16 0.00 0.00
10:55 am 10:55 Sunny 80 26.7 66 19 63 63 SSW 13 20 29.70 1006 10 16 0.00 0.00
11:15 am 11:15 Sunny 82 27.6 66 18.7 58 58 SW 12 19 29.71 1006 10 16 0.00 0.00
11:35 am 11:35 Sunny 83 28.4 66 18.7 56 56 SW 7 11 29.71 1006 10 16 0.00 0.00
11:55 am 11:55 Sunny 85 29.7 67 19.2 53 53 WSW 12 19 29.70 1006 10 16 0.00 0.00
12:15 pm 12:15 Sunny 87 30.6 66 19 50 50 SW 10 17 29.69 1006 10 16 0.00 0.00
12:35 pm 12:35 Sunny 88 31.1 66 18.9 48 48 SW 12 19 29.69 1005 10 16 0.00 0.00
12:55 pm 12:55 Sunny 89 31.7 65 18.4 45 45 SW 9 15 29.69 1005 10 16 0.00 0.00
1:15 pm 13:15 Sunny 90 32.2 64 17.9 43 43 SSW 7 11 29.68 1005 10 16 0.00 0.00
1:35 pm 13:35 Sunny 91 32.6 66 19 45 45 SSW 8 13 29.68 1005 10 16 0.00 0.00
1:55 pm 13:55 Sunny 92 33.1 66 18.7 42 42 SSW 6 9 29.66 1005 10 16 0.00 0.00
2:15 pm 14:15 Sunny 92 33.4 69 20.3 46 46 S 6 9 29.65 1004 10 16 0.00 0.00
2:35 pm 14:35 Sunny 93 33.9 68 20.2 45 45 S 3 6 29.65 1004 10 16 0.00 0.00
2:55 pm 14:55 Sunny 94 34.7 67 19.5 41 41 SW 3 6 29.64 1004 10 16 0.00 0.00
3:15 pm 15:15 Sunny 95 34.9 67 19.2 40 40 S 5 7 29.63 1003 10 16 0.00 0.00
3:35 pm 15:35 Sunny 95 35 67 19.5 40 40 Calm 29.63 1003 10 16 0.00 0.00
3:55 pm 15:55 Sunny 96 35.7 64 17.8 35 35 Calm 29.62 1003 10 16 0.00 0.00
4:15 pm 16:15 Sunny 97 36 64 18 34 34 Calm 29.61 1003 10 16 0.00 0.00
4:35 pm 16:35 Sunny 95 35 71 21.6 46 46 NE 7 11 29.62 1003 10 16 0.00 0.00
4:55 pm 16:55 Partly Cloudy 94 34.5 71 21.5 47 47 NE 7 11 29.61 1003 10 16 0.00 0.00
5:15 pm 17:15 Partly Cloudy 95 34.8 72 22.1 48 48 E 3 6 29.61 1003 10 16 0.00 0.00
5:35 pm 17:35 Sunny 94 34.2 73 22.5 50 50 ESE 3 6 29.62 1003 10 16 0.00 0.00
5:55 pm 17:55 Partly Cloudy 94 34.6 74 23.2 51 51 SE 5 7 29.60 1002 10 16 0.00 0.00
6:15 pm 18:15 Partly Cloudy 93 34.1 74 23.2 53 53 SE 6 9 29.60 1002 10 16 0.00 0.00
6:35 pm 18:35 Sunny 93 33.8 73 22.5 52 52 SSE 6 9 29.60 1002 10 16 0.00 0.00
6:55 pm 18:55 Sunny 90 32.1 72 22.3 56 56 S 7 11 29.61 1003 10 16 0.00 0.00
7:15 pm 19:15 Sunny 89 31.8 70 20.9 52 52 SSE 7 11 29.61 1003 10 16 0.00 0.00
7:35 pm 19:35 Sunny 87 30.8 71 21.6 58 58 SSE 7 11 29.62 1003 10 16 0.00 0.00
7:55 pm 19:55 Sunny 87 30.6 71 21.4 58 58 SSE 7 11 29.62 1003 10 16 0.00 0.00
8:15 pm 20:15 Sunny 86 30.1 69 20.6 57 57 SSE 8 13 29.63 1003 10 16 0.00 0.00
8:35 pm 20:35 Sunny 84 29.1 69 20.3 59 59 SSE 8 13 29.65 1004 10 16 0.00 0.00
8:55 pm 20:55 Sunny 83 28.3 67 19.7 60 60 SSE 8 13 29.66 1004 10 16 0.00 0.00
9:15 pm 21:15 Clear 82 28 66 19 58 58 SSE 9 15 29.66 1005 10 16 0.00 0.00
9:35 pm 21:35 Clear 82 27.7 66 18.8 58 58 SSE 9 15 29.67 1005 10 16 0.00 0.00
9:55 pm 21:55 Clear 81 27.1 66 18.9 61 61 SSE 8 13 29.68 1005 10 16 0.00 0.00
10:15 pm 22:15 Clear 81 27.2 65 18.6 59 59 SSE 9 15 29.69 1005 10 16 0.00 0.00
10:35 pm 22:35 Clear 80 26.8 65 18.5 60 60 SSE 9 15 29.70 1006 10 16 0.00 0.00
10:55 pm 22:55 Clear 80 26.6 65 18.5 61 61 SSE 10 17 29.70 1006 10 16 0.00 0.00
11:15 pm 23:15 Clear 80 26.8 65 18.4 60 60 SSE 10 17 29.71 1006 10 16 0.00 0.00
11:35 pm 23:35 Clear 80 26.7 65 18.4 60 60 S 10 17 29.72 1007 10 16 0.00 0.00
11:55 pm 23:55 Clear 80 26.7 65 18.3 60 60 S 10 17 29.72 1007 10 16 0.00 0.00

Powered by AerisWeather